Mitchell, SD

6:51 PM CDT on September 20, 2019 (GMT -0500)
Mitchell Municipal

Weather History for KMHE - August, 2019

Change the Weather History Date:

Tuesday, August 20, 2019

  Actual Average Record
Temperature  
Mean Temperature 80 °F 72 °F  
Max Temperature 91 °F 83 °F 103 °F (1955)
Min Temperature 69 °F 60 °F 37 °F (1950)
Degree Days  
Heating Degree Days 0 0  
Month to date heating degree days 0 0  
Since 1 June heating degree days 16 40  
Since 1 July heating degree days 0 5  
Cooling Degree Days 15 7  
Month to date cooling degree days 174 163  
Year to date cooling degree days 754 681  
Since 1 June cooling degree days 735 641  
Growing Degree Days 31 (Base 50)    
Moisture  
Dew Point 70 °F    
Average Humidity 66    
Maximum Humidity 94    
Minimum Humidity 38    
Precipitation  
Precipitation 0.00 in 0.07 in 2.28 in (2002)
Month to date precipitation 2.13 1.60  
Year to date precipitation 23.05 15.57  
Snow  
Snow 0.00 in - 0.00 in ()
Month to date snowfall 0.0  
Since 1 June snowfall 0.0  
Since 1 July snowfall 0.0  
Snow Depth 0.00 in    
Sea Level Pressure  
Sea Level Pressure 29.92 in    
Wind  
Wind Speed 9 mph (North)    
Max Wind Speed 17 mph    
Max Gust Speed 24 mph    
Visibility 8 miles    
Events Fog    
T = Trace of Precipitation, MM = Missing Value Source: NWS Daily Summary

Daily Weather History Graph

Daily Weather History Graph

Search for Another Location

Airport or City:

Astronomy

Aug. 20, 2019 Rise Set
Actual Time 6:41 AM CDT 8:28 PM CDT
Civil Twilight 6:11 AM CDT 8:58 PM CDT
Nautical Twilight 5:33 AM CDT 9:36 PM CDT
Astronomical Twilight 4:53 AM CDT 10:16 PM CDT
Moon 11:08 PM CDT 11:29 AM CDT
Length of Visible Light 14h 47m
Length of Day
13h 46m
Waning Gibbous, 77% of the Moon is Illuminated
Aug 20
Waning Gibbous
Aug 23
Last Quarter
Aug 30
New
Sep 5
First Quarter
Sep 13
Full

Hourly Weather History & Observations

Time (CDT) Temp. Heat Index Dew Point Humidity Pressure Visibility Wind Dir Wind Speed Gust Speed Precip Events Conditions
12:53 AM 75.9 °F - 71.1 °F 85% 29.85 in 10.0 mi SSE 11.5 mph - N/A   Clear
1:53 AM 75.9 °F - 72.0 °F 87% 29.84 in 10.0 mi SSE 12.7 mph - N/A   Mostly Cloudy
2:06 AM 75.9 °F - 72.0 °F 87% 29.86 in 10.0 mi South 11.5 mph - N/A   Scattered Clouds
2:53 AM 75.9 °F - 72.0 °F 87% 29.83 in 10.0 mi South 9.2 mph - N/A   Clear
3:53 AM 75.0 °F - 72.0 °F 90% 29.82 in 10.0 mi SSE 5.8 mph - N/A   Partly Cloudy
4:20 AM 75.0 °F - 72.0 °F 90% 29.84 in 9.0 mi SSW 5.8 mph - N/A   Scattered Clouds
4:43 AM 75.0 °F - 72.0 °F 90% 29.84 in 9.0 mi SSW 3.5 mph - N/A   Mostly Cloudy
4:53 AM 75.0 °F - 72.0 °F 90% 29.81 in 9.0 mi WSW 5.8 mph - N/A   Mostly Cloudy
5:53 AM 75.0 °F - 72.0 °F 90% 29.83 in 7.0 mi Calm Calm - N/A   Overcast
6:20 AM 75.0 °F - 73.0 °F 94% 29.86 in 1.8 mi WNW 3.5 mph - N/A   Overcast
6:39 AM 75.0 °F - 73.0 °F 94% 29.87 in 0.8 mi West 5.8 mph - N/A   Mist
6:53 AM 75.0 °F - 73.0 °F 94% 29.84 in 0.5 mi West 5.8 mph - N/A Fog Fog
7:10 AM 75.0 °F - 73.0 °F 94% 29.89 in 0.2 mi WNW 3.5 mph - N/A Fog Fog
7:17 AM 75.0 °F - 73.0 °F 94% 29.89 in 0.8 mi Calm Calm - N/A   Overcast
7:34 AM 75.0 °F - 73.0 °F 94% 29.90 in 1.2 mi NW 3.5 mph - N/A   Overcast
7:53 AM 75.0 °F - 73.0 °F 94% 29.88 in 2.5 mi NNE 4.6 mph - N/A   Overcast
8:00 AM 75.9 °F - 73.0 °F 91% 29.92 in 3.0 mi NNW 3.5 mph - N/A   Overcast
8:46 AM 78.1 °F - 73.9 °F 87% 29.94 in 6.0 mi NE 5.8 mph - N/A   Mostly Cloudy
8:53 AM 79.0 °F - 73.9 °F 84% 29.92 in 7.0 mi NNE 4.6 mph - N/A   Mostly Cloudy
9:26 AM 82.0 °F 87.4 °F 73.0 °F 74% 29.96 in 10.0 mi NNE 6.9 mph - N/A   Scattered Clouds
9:53 AM 82.0 °F 87.4 °F 73.0 °F 74% 29.94 in 10.0 mi North 13.8 mph - N/A   Scattered Clouds
10:53 AM 84.9 °F 90.1 °F 71.1 °F 63% 29.96 in 10.0 mi NNE 12.7 mph - N/A   Clear
11:53 AM 86.0 °F 90.7 °F 70.0 °F 59% 29.96 in 10.0 mi NNE 12.7 mph - N/A   Clear
12:53 PM 89.1 °F 92.1 °F 66.9 °F 48% 29.96 in 10.0 mi NNE 8.1 mph - N/A   Clear
1:53 PM 90.0 °F 90.3 °F 62.1 °F 39% 29.96 in 10.0 mi NNE 12.7 mph - N/A   Clear
2:53 PM 91.0 °F 91.9 °F 63.0 °F 39% 29.96 in 10.0 mi NNE 10.4 mph - N/A   Clear
3:53 PM 89.1 °F 92.9 °F 68.0 °F 50% 29.96 in 10.0 mi NNE 16.1 mph 23.0 mph N/A   Clear
4:53 PM 82.9 °F 87.0 °F 70.0 °F 65% 30.01 in 10.0 mi North 11.5 mph - N/A   Clear
5:53 PM 87.1 °F 90.6 °F 68.0 °F 53% 30.00 in 10.0 mi North 10.4 mph - N/A   Clear
6:53 PM 84.9 °F 87.6 °F 66.9 °F 55% 30.01 in 10.0 mi North 9.2 mph - N/A   Clear
7:53 PM 81.0 °F 83.3 °F 66.9 °F 62% 30.01 in 10.0 mi North 8.1 mph - N/A   Clear
8:53 PM 75.9 °F - 68.0 °F 76% 30.01 in 10.0 mi North 8.1 mph - N/A   Clear
9:53 PM 73.0 °F - 66.0 °F 79% 30.03 in 10.0 mi North 9.2 mph - N/A   Clear
10:53 PM 71.1 °F - 64.9 °F 81% 30.05 in 10.0 mi North 9.2 mph - N/A   Clear
11:53 PM 71.1 °F - 64.9 °F 81% 30.06 in 10.0 mi North 9.2 mph - N/A   Partly Cloudy